Time,TemperatureF,DewpointF,PressureIn,WindDirection,WindDirectionDegrees,WindSpeedMPH,WindSpeedGustMPH,Humidity,HourlyPrecipIn,Conditions,Clouds,dailyrainin,SoftwareType,DateUTC
2013-09-17 00:12:00,59.0,52.0,29.72,WNW,283,0.0,-999.0,79,-99.99,,,-99.99,,2013-09-17 06:12:00,
2013-09-17 00:42:00,59.0,53.0,29.72,WNW,283,0.0,-999.0,81,-99.99,,,-99.99,,2013-09-17 06:42:00,
2013-09-17 00:52:00,59.0,53.0,29.72,WNW,283,3.0,-999.0,81,-99.99,,,-99.99,,2013-09-17 06:52:00,
2013-09-17 01:11:00,59.0,53.0,29.71,WNW,283,2.0,-999.0,80,-99.99,,,-99.99,,2013-09-17 07:11:00,
2013-09-17 01:23:00,59.0,52.0,29.71,WNW,291,3.0,-999.0,79,-99.99,,,-99.99,,2013-09-17 07:23:00,
2013-09-17 01:42:00,59.0,52.0,29.71,WNW,291,2.0,-999.0,78,-99.99,,,-99.99,,2013-09-17 07:42:00,
2013-09-17 01:52:00,58.0,52.0,29.72,NW,307,4.0,-999.0,79,-99.99,,,-99.99,,2013-09-17 07:52:00,
2013-09-17 02:12:00,58.0,52.0,29.72,NW,307,4.0,-999.0,79,-99.99,,,-99.99,,2013-09-17 08:12:00,
2013-09-17 02:21:00,58.0,52.0,29.72,NW,307,2.0,-999.0,80,-99.99,,,-99.99,,2013-09-17 08:21:00,
2013-09-17 02:42:00,58.0,52.0,29.72,NW,307,2.0,-999.0,81,-99.99,,,-99.99,,2013-09-17 08:42:00,
2013-09-17 02:52:00,57.0,51.0,29.72,NW,326,2.0,-999.0,81,-99.99,,,-99.99,,2013-09-17 08:52:00,
2013-09-17 03:11:00,58.0,52.0,29.70,NNW,331,3.0,-999.0,80,-99.99,,,-99.99,,2013-09-17 09:11:00,
2013-09-17 03:22:00,58.0,52.0,29.69,NNW,331,2.0,-999.0,80,-99.99,,,-99.99,,2013-09-17 09:22:00,
2013-09-17 03:42:00,57.0,51.0,29.69,NNW,331,3.0,-999.0,80,-99.99,,,-99.99,,2013-09-17 09:42:00,
2013-09-17 03:53:00,57.0,51.0,29.69,NNW,331,4.0,-999.0,81,-99.99,,,-99.99,,2013-09-17 09:53:00,
2013-09-17 04:12:00,56.0,51.0,29.70,NNW,331,5.0,-999.0,83,-99.99,,,-99.99,,2013-09-17 10:12:00,
2013-09-17 04:23:00,57.0,52.0,29.70,NNW,335,6.0,-999.0,83,-99.99,,,-99.99,,2013-09-17 10:23:00,
2013-09-17 04:42:00,57.0,52.0,29.70,NNW,335,4.0,-999.0,83,-99.99,,,-99.99,,2013-09-17 10:42:00,
2013-09-17 04:53:00,57.0,52.0,29.69,NNW,335,3.0,-999.0,83,-99.99,,,-99.99,,2013-09-17 10:53:00,
2013-09-17 05:11:00,58.0,52.0,29.69,NNW,335,4.0,-999.0,80,-99.99,,,-99.99,,2013-09-17 11:11:00,
2013-09-17 05:22:00,59.0,52.0,29.68,NNW,335,4.0,-999.0,78,-99.99,,,-99.99,,2013-09-17 11:22:00,
2013-09-17 05:52:00,61.0,52.0,29.67,NE,41,3.0,-999.0,72,-99.99,,,-99.99,,2013-09-17 11:52:00,
2013-09-17 06:12:00,60.0,51.0,29.67,NNE,33,2.0,-999.0,73,-99.99,,,-99.99,,2013-09-17 12:12:00,
2013-09-17 06:21:00,59.0,51.0,29.67,NE,34,2.0,-999.0,75,-99.99,,,-99.99,,2013-09-17 12:21:00,
2013-09-17 06:42:00,61.0,52.0,29.67,NE,41,4.0,-999.0,72,-99.99,,,-99.99,,2013-09-17 12:42:00,
2013-09-17 06:52:00,61.0,51.0,29.70,NNE,27,4.0,-999.0,70,-99.99,,,-99.99,,2013-09-17 12:52:00,
2013-09-17 07:11:00,61.0,52.0,29.70,NE,34,2.0,-999.0,71,-99.99,,,-99.99,,2013-09-17 13:11:00,
2013-09-17 07:22:00,61.0,52.0,29.70,NE,49,2.0,-999.0,72,-99.99,,,-99.99,,2013-09-17 13:22:00,
2013-09-17 07:42:00,61.0,52.0,29.71,NE,41,4.0,-999.0,71,-99.99,,,-99.99,,2013-09-17 13:42:00,
2013-09-17 07:52:00,62.0,52.0,29.75,NNE,32,2.0,-999.0,70,-99.99,,,-99.99,,2013-09-17 13:52:00,
2013-09-17 08:11:00,62.0,52.0,29.75,NE,44,2.0,-999.0,70,-99.99,,,-99.99,,2013-09-17 14:11:00,
2013-09-17 08:21:00,62.0,52.0,29.74,NNE,20,2.0,-999.0,71,-99.99,,,-99.99,,2013-09-17 14:21:00,
2013-09-17 08:52:00,64.0,52.0,29.73,NNE,23,3.0,-999.0,66,-99.99,,,-99.99,,2013-09-17 14:52:00,
2013-09-17 09:11:00,65.0,53.0,29.73,NE,47,4.0,-999.0,66,-99.99,,,-99.99,,2013-09-17 15:11:00,
2013-09-17 09:22:00,66.0,53.0,29.72,East,79,4.0,-999.0,63,-99.99,,,-99.99,,2013-09-17 15:22:00,
2013-09-17 09:44:00,67.0,52.0,29.71,East,88,6.0,-999.0,59,-99.99,,,-99.99,,2013-09-17 15:44:00,
2013-09-17 09:53:00,67.0,53.0,29.74,East,98,4.0,-999.0,61,-99.99,,,-99.99,,2013-09-17 15:53:00,
2013-09-17 10:12:00,69.0,54.0,29.73,East,86,3.0,-999.0,59,-99.99,,,-99.99,,2013-09-17 16:12:00,
2013-09-17 10:23:00,69.0,54.0,29.73,East,86,3.0,-999.0,59,-99.99,,,-99.99,,2013-09-17 16:23:00,
2013-09-17 10:53:00,73.0,54.0,29.71,ENE,69,4.0,-999.0,52,-99.99,,,-99.99,,2013-09-17 16:53:00,
2013-09-17 11:03:00,73.0,54.0,29.71,ENE,69,4.0,-999.0,52,-99.99,,,-99.99,,2013-09-17 17:03:00,
2013-09-17 11:12:00,73.0,54.0,29.71,ENE,69,4.0,-999.0,52,-99.99,,,-99.99,,2013-09-17 17:12:00,
2013-09-17 11:23:00,73.0,53.0,29.70,ESE,111,5.0,-999.0,49,-99.99,,,-99.99,,2013-09-17 17:23:00,
2013-09-17 11:34:00,73.0,53.0,29.70,ESE,111,5.0,-999.0,49,-99.99,,,-99.99,,2013-09-17 17:34:00,
2013-09-17 11:43:00,73.0,53.0,29.70,ESE,111,5.0,-999.0,49,-99.99,,,-99.99,,2013-09-17 17:43:00,
2013-09-17 11:53:00,74.0,54.0,29.70,East,80,5.0,-999.0,50,-99.99,,,-99.99,,2013-09-17 17:53:00,
2013-09-17 12:12:00,74.0,52.0,29.69,East,96,4.0,-999.0,47,-99.99,,,-99.99,,2013-09-17 18:12:00,
2013-09-17 12:21:00,75.0,52.0,29.69,East,96,3.0,-999.0,45,-99.99,,,-99.99,,2013-09-17 18:21:00,
2013-09-17 12:42:00,76.0,52.0,29.68,SSE,147,3.0,-999.0,44,-99.99,,,-99.99,,2013-09-17 18:42:00,
2013-09-17 12:52:00,76.0,52.0,29.66,SSE,147,5.0,-999.0,43,-99.99,,,-99.99,,2013-09-17 18:52:00,
2013-09-17 13:11:00,76.0,52.0,29.65,ESE,112,2.0,-999.0,44,-99.99,,,-99.99,,2013-09-17 19:11:00,
2013-09-17 13:21:00,77.0,51.0,29.64,SE,141,4.0,-999.0,41,-99.99,,,-99.99,,2013-09-17 19:21:00,
2013-09-17 13:52:00,78.0,50.0,29.62,South,182,4.0,-999.0,37,-99.99,,,-99.99,,2013-09-17 19:52:00,
2013-09-17 14:11:00,78.0,48.0,29.63,SE,127,4.0,-999.0,35,-99.99,,,-99.99,,2013-09-17 20:11:00,
2013-09-17 14:22:00,79.0,52.0,29.62,SSE,150,4.0,-999.0,39,-99.99,,,-99.99,,2013-09-17 20:22:00,
2013-09-17 14:52:00,79.0,47.0,29.59,South,184,3.0,-999.0,33,-99.99,,,-99.99,,2013-09-17 20:52:00,
2013-09-17 15:12:00,81.0,47.0,29.58,SSE,158,5.0,-999.0,31,-99.99,,,-99.99,,2013-09-17 21:12:00,
2013-09-17 15:22:00,81.0,47.0,29.57,South,181,3.0,-999.0,30,-99.99,,,-99.99,,2013-09-17 21:22:00,
2013-09-17 15:54:00,79.0,47.0,29.57,SSE,153,2.0,-999.0,32,-99.99,,,-99.99,,2013-09-17 21:54:00,
2013-09-17 16:13:00,81.0,47.0,29.55,ESE,107,3.0,-999.0,31,-99.99,,,-99.99,,2013-09-17 22:13:00,
2013-09-17 16:24:00,79.0,47.0,29.56,SE,141,4.0,-999.0,32,-99.99,,,-99.99,,2013-09-17 22:24:00,
2013-09-17 16:53:00,82.0,46.0,29.54,ESE,103,3.0,-999.0,28,-99.99,,,-99.99,,2013-09-17 22:53:00,
2013-09-17 17:12:00,82.0,45.0,29.52,South,171,2.0,-999.0,27,-99.99,,,-99.99,,2013-09-17 23:12:00,
2013-09-17 17:21:00,82.0,46.0,29.50,South,180,2.0,-999.0,28,-99.99,,,-99.99,,2013-09-17 23:21:00,
2013-09-17 17:52:00,80.0,47.0,29.50,SE,145,3.0,-999.0,31,-99.99,,,-99.99,,2013-09-17 23:52:00,
2013-09-17 18:11:00,79.0,47.0,29.50,ESE,119,1.0,-999.0,33,-99.99,,,-99.99,,2013-09-18 00:11:00,
2013-09-17 18:22:00,78.0,47.0,29.50,ESE,105,1.0,-999.0,34,-99.99,,,-99.99,,2013-09-18 00:22:00,
2013-09-17 18:42:00,78.0,48.0,29.51,SE,136,1.0,-999.0,35,-99.99,,,-99.99,,2013-09-18 00:42:00,
2013-09-17 18:52:00,77.0,47.0,29.50,ESE,102,1.0,-999.0,35,-99.99,,,-99.99,,2013-09-18 00:52:00,
2013-09-17 19:11:00,76.0,47.0,29.49,East,101,2.0,-999.0,36,-99.99,,,-99.99,,2013-09-18 01:11:00,
2013-09-17 19:21:00,76.0,49.0,29.49,East,101,0.0,-999.0,38,-99.99,,,-99.99,,2013-09-18 01:21:00,
2013-09-17 19:42:00,75.0,49.0,29.48,ESE,102,1.0,-999.0,40,-99.99,,,-99.99,,2013-09-18 01:42:00,
2013-09-17 19:52:00,74.0,49.0,29.49,East,101,0.0,-999.0,42,-99.99,,,-99.99,,2013-09-18 01:52:00,
2013-09-17 20:11:00,73.0,48.0,29.48,East,100,0.0,-999.0,41,-99.99,,,-99.99,,2013-09-18 02:11:00,
2013-09-17 20:22:00,73.0,49.0,29.48,East,98,1.0,-999.0,42,-99.99,,,-99.99,,2013-09-18 02:22:00,
2013-09-17 20:43:00,74.0,49.0,29.50,East,99,1.0,-999.0,42,-99.99,,,-99.99,,2013-09-18 02:43:00,
2013-09-17 20:52:00,73.0,49.0,29.50,East,101,0.0,-999.0,43,-99.99,,,-99.99,,2013-09-18 02:52:00,
2013-09-17 21:11:00,74.0,49.0,29.48,ESE,102,3.0,-999.0,42,-99.99,,,-99.99,,2013-09-18 03:11:00,
2013-09-17 21:22:00,74.0,49.0,29.48,SE,138,2.0,-999.0,42,-99.99,,,-99.99,,2013-09-18 03:22:00,
2013-09-17 21:44:00,73.0,49.0,29.48,SE,132,1.0,-999.0,43,-99.99,,,-99.99,,2013-09-18 03:44:00,
2013-09-17 21:54:00,73.0,50.0,29.49,SE,132,0.0,-999.0,45,-99.99,,,-99.99,,2013-09-18 03:54:00,
2013-09-17 22:14:00,72.0,51.0,29.47,SE,146,2.0,-999.0,48,-99.99,,,-99.99,,2013-09-18 04:14:00,
2013-09-17 22:24:00,72.0,52.0,29.47,SSE,160,4.0,-999.0,49,-99.99,,,-99.99,,2013-09-18 04:24:00,
2013-09-17 22:44:00,72.0,52.0,29.47,SE,139,4.0,-999.0,49,-99.99,,,-99.99,,2013-09-18 04:44:00,
2013-09-17 22:54:00,72.0,52.0,29.48,South,179,2.0,-999.0,49,-99.99,,,-99.99,,2013-09-18 04:54:00,
2013-09-17 23:12:00,72.0,52.0,29.47,SSE,153,0.0,-999.0,49,-99.99,,,-99.99,,2013-09-18 05:12:00,
2013-09-17 23:23:00,71.0,51.0,29.47,ESE,110,4.0,-999.0,50,-99.99,,,-99.99,,2013-09-18 05:23:00,
2013-09-17 23:42:00,70.0,51.0,29.49,SSE,161,1.0,-999.0,51,-99.99,,,-99.99,,2013-09-18 05:42:00,
2013-09-17 23:52:00,70.0,52.0,29.49,SSE,161,0.0,-999.0,53,-99.99,,,-99.99,,2013-09-18 05:52:00,